Regional Weather Roundup
Issued by NWS

Home | Current Version | Previous Version | Graphics & Text | Print | Product List | Glossary On
Versions: 1 2 3 4 5 6 7 8 9 10 11 12 13 14 15 16 17 18 19 20 21 22 23 24 25 26 27 28 29 30 31 32 33 34 35 36 37 38 39 40 41 42 43 44 45 46 47 48 49 50
989
ASUS43 KLOT 030808
RWRIL

ILLINOIS REGIONAL WEATHER ROUNDUP
NATIONAL WEATHER SERVICE CHICAGO/ROMEOVILLE IL
200 AM CST SAT DEC 03 2016

NOTE: "FAIR" INDICATES FEW OR NO CLOUDS BELOW 12,000 FEET WITH NO
SIGNIFICANT WEATHER AND/OR OBSTRUCTIONS TO VISIBILITY.

* THESE STATIONS ARE NOT UNDER NWS QUALITY CONTROL. THEY ALSO MAY NOT
  REPORT WEATHER SUCH AS PRECIPITATION OR FOG.

ILZ001-002-007-009-015-016-024-030900-
NORTHWEST ILLINOIS

CITY           SKY/WX    TMP DP  RH WIND       PRES   REMARKS
MOLINE         CLOUDY    34  25  69 W5        30.37R WCI  30
SAVANNA*       CLOUDY    32  24  70 W7        30.35R WCI  26
$$

ILZ003-004-008-010-011-017-018-030900-
NORTH CENTRAL ILLINOIS

CITY           SKY/WX    TMP DP  RH WIND       PRES   REMARKS
ROCKFORD       CLOUDY    32  22  66 NW8       30.34R WCI  25
FREEPORT*      CLOUDY    31  24  75 NW6       30.34R WCI  25
ROCHELLE*      CLOUDY    32  26  79 CALM      30.33R
DE KALB*       CLOUDY    31  24  73 CALM      30.32R
$$

ILZ005-006-012>014-019>023-030900-
NORTHEAST ILLINOIS

CITY           SKY/WX    TMP DP  RH WIND       PRES   REMARKS
CHICAGO-OHARE  CLOUDY    33  23  66 W7        30.31S WCI  27
CHICAGO-MIDWAY CLOUDY    34  21  59 NW6       30.33R WCI  29
AURORA         CLOUDY    33  25  72 NW6       30.33R WCI  28
LANSING*       PTCLDY    31  25  77 W7        30.33R WCI  25
JOLIET*        CLOUDY    35  26  68 CALM      30.34R
WAUKEGAN       NOT AVBL
DUPAGE AIRPORT CLOUDY    32  22  66 NW5       30.31S WCI  27
KANKAKEE*      CLOUDY    35  27  71 CALM      30.35R
WHEELING       CLOUDY    33  23  66 W5        30.33R WCI  29
MORRIS*        CLOUDY    33  27  78 CALM      30.34R
ROMEOVILLE*    CLOUDY    33  27  78 NW6       30.34R WCI  27
NORTHERLY ISL    N/A     35  22  59 SW5         N/A  WCI  31
$$

LMZ740>746-030900-
SOUTHERN LAKE MICHIGAN

STATION/POSITION SKY/WX   TEMP    WIND        PRES    VSBY  WAVE
                          AIR SEA DIR/SP/G                  HT/PER
                          (F)     (DEG/KT/KT) (MB)    (MI)  (FT/S)
SOUTHERN BUOY              36 49  280/ 10/ 14 1026.1R         2/ 4
HARRISON CRIB              36     320/  7/  8   N/A
BURNHAM HARBOR             35     280/  6/  9   N/A
CALUMET HARBOR             33     260/  4/  8 1026.0R
BURNS HARBOR               37     290/  9/ 13 1026.4F
MICHIGAN CITY              37     270/ 12/ 13   N/A
$$

ILZ025>027-034>036-040-047-049-050-058-095>099-030900-
WEST-CENTRAL ILLINOIS

CITY           SKY/WX    TMP DP  RH WIND       PRES   REMARKS
GALESBURG*     CLOUDY    32  28  83 CALM      30.37R
MACOMB*        CLOUDY    36  33  90 CALM      30.39R
JACKSONVILLE*  CLOUDY    35  32  91 CALM      30.38R
PITTSFIELD*    CLOUDY    33  31  92 CALM      30.38S
$$

ILZ028>032-037-038-041>044-048-051>054-059>061-030900-
CENTRAL ILLINOIS

CITY           SKY/WX    TMP DP  RH WIND       PRES   REMARKS
PONTIAC        CLOUDY    35  30  82 W7        30.36R WCI  29
PEORIA         CLOUDY    35  28  75 W5        30.38R WCI  31
LACON*         CLOUDY    33  26  76 W5        30.36R WCI  29
LINCOLN*       CLOUDY    37  32  82 CALM      30.37S
SPRINGFIELD    CLOUDY    38  34  85 CALM      30.37
TAYLORVILLE    CLOUDY    37  34  90 CALM      30.37S
$$

ILZ033-039-045-046-055>057-062-063-030900-
EAST-CENTRAL ILLINOIS

CITY           SKY/WX    TMP DP  RH WIND       PRES   REMARKS
CHAMPAIGN      CLOUDY    36  27  69 NW9       30.36R WCI  29
RANTOUL*       CLOUDY    37  29  74 NW7       30.36R WCI  31
PARIS*         CLOUDY    37  32  82 NW9       30.37R WCI  30
$$

ILZ079-100>102-030900-
SOUTHWEST ILLINOIS

CITY           SKY/WX    TMP DP  RH WIND       PRES   REMARKS
ALTON          CLOUDY    28  28  96 CALM      30.38R
BELLEVILLE     PTCLDY    29  29  99 CALM      30.36S
SPARTA*        CLOUDY    32  30  93 CALM      30.39R
$$

ILZ064>066-069>071-074>076-080>082-084>086-088>090-092>094-030900-
SOUTH-CENTRAL ILLINOIS

CITY           SKY/WX    TMP DP  RH WIND       PRES   REMARKS
CARBONDALE     PTCLDY    30  30 100 CALM      30.38
CAIRO*         CLOUDY    35  32  87 NE3       30.37R
EFFINGHAM*     CLOUDY    38  36  93 CALM      30.37F
MARION         PTCLDY    32  30  93 CALM      30.38S
CENTRALIA*     PTCLDY    30  30  99 CALM      30.37R FOG
SALEM*         PTCLDY    32  30  94 CALM      30.37R FOG
METROPOLIS*    MOCLDY    35  32  88 CALM      30.37S
$$

ILZ067-068-072-073-078-083-087-091-030900-
SOUTHEAST ILLINOIS

CITY           SKY/WX    TMP DP  RH WIND       PRES   REMARKS
LAWRENCEVILLE  CLOUDY    40  32  73 CALM      30.37S
FLORA*         CLOUDY    37  34  90 SW3       30.37S
FAIRFIELD*     CLOUDY    31  30  97 CALM      30.36S
HARRISBURG*    CLOUDY    31  30  96 CALM      30.38S FOG
CARMI*         CLOUDY    30  30 100 CALM      30.36F FOG
$$

ABBREVIATIONS USED IN REMARKS
   TC - TEMPERATURE IN CELSIUS
  WCI - WIND CHILL INDEX
   HX - HEAT INDEX
  VSB - VISIBILITY
$$





USA.gov is the U.S. government's official web portal to all federal, state and local government web resources and services.